COSMOS 823

Satellite information

Favourite Embed

Satellite Type and Status

PAYLOADIN ORBIT

Key statistics

Satellite COSMOS 823 at a glance.

Uptime

18047

Days in orbit

Revolutions

≈ 13.7

Per day

Orbit

LEO

Low Earth Orbit

Inclination

83.0

Latest

Satellite identification and parameters

Extended collection of information and parameters for COSMOS 823.

Object identification

Identified? True

Debris? False

Object name: COSMOS 823

International designator: 1976-051A

Object number (NORAD): 8873

Object ID (CCSDS): 8873

Country: COMMONWEALTH OF INDEPENDENT STATES (CIS)

Current information (Y/N): Y

RCS size: LARGE

Orbital parameters

Period: 104.84 minutes

Inclination: 82.9632 deg

SMA: 7365.111 km

Apoapsis: 1004.29 km

Periapsis: 969.662 km

RAAN: 305.8725 deg

Eccentricy: 0.00235081

Argument of periapsis: 134.3376 deg

Mean anomaly: 286.8464 deg

Mean motion: 13.73516257 rev/day

Mean motion (dot): 0.00000076 rev/day2

B* drag term: 0.00006506901 1/REarth

Two-line elements (TLE)

Creation date: Oct. 30, 2025, 3:32 a.m.

Reference frame: TEME

Reference center: EARTH

Epoch: Oct. 29, 2025, 11:26 p.m. UTC

TLE line 0: 0 COSMOS 823

TLE line 1: 1 08873U 76051A 25302.97638912 .00000076 00000-0 65069-4 0 9995

TLE line 2: 2 08873 82.9632 305.8725 0023508 134.3376 286.8464 13.73516257475546

Live tracking on map

Real-time ground track for satellite COSMOS 823.

In-orbit conjunctions

There are no conjunctions computed for COSMOS 823, at the moment. Check back to stay up to date, as we update our databases every day.

Go to all conjunctions

Associated space launch

The first soviet navigation system called Tsiklon consisted of Zaliv satellites in low earth orbit.

COSMOS 823 was lifted into orbit during the mission ‘Kosmos-3M | Zaliv 21’, on board a Kosmos-3M space rocket.

The launch took place on June 2, 1976, 10:30 p.m. from 132/2.

For more information about the launch, click the button.

Launch to space Kosmos-3M | Zaliv 21
Kosmos-3M | Zaliv 21

Agency: N/A

Status: Launch Successful

Launch date: June 2, 1976, 10:30 p.m. UTC

Rocket: Kosmos-3M

Launch pad: 132/2

Location: Plesetsk Cosmodrome, Russian Federation

...

Latest news about this satellite

There are no fresh news available about this satellite. Check back as we update our databases every day.


Newsletter sign-up

Weekly statistics, charts and insights to help you stay on top of the space industry.